Location: McFarlands Corners
(41.4117°N, 81.3382°W)
Time: 06:31:41
(UTC+00:00)

Hubble Space Telescope - Pass Details

Date: 26 January 2026
Orbit: 478 x 480 km, 28.5° (Epoch: 10 February)

Event Time Altitude Azimuth Distance (km) Brightness Sun altitude
Rises 23:44:13 0° 227° (SW) 2,511 5.3 -13.3°
Reaches altitude 10° 23:48:05 10° 187° (S) 1,635 3.5 -14.0°
Maximum altitude 23:48:55 11° 174° (S) 1,598 3.3 -14.1°
Drops below altitude 10° 23:49:46 10° 161° (SSE) 1,636 3.2 -14.3°
Enters shadow 23:51:21 - 140° (SE) 1,886 3.3 -14.6°
